Back to catalog

TITAN 3C TRANSTAGE R/B

AliveMEO
NORAD 3692·ROCKET BODY·🇺🇸 United States

Launched Feb 9, 1969 from Cape Canaveral Space Force Station

Loading…

Next Passes (next 24 hours)

TLE

FreshSource: Space-Track

Epoch: Sep 14, 2026, 13:48 UTC

1 03692U 69013B   26257.57501435 -.00000257  00000-0  00000-0 0  9996
2 03692   1.5396  77.4316 0164649  39.3013  81.5308  0.97536746 43192

Track TITAN 3C TRANSTAGE R/B in real time with AllMySat

Download on the App Store